Location: Newark
(34.3481°N, 134.0494°E)
Time: 19:08:44
(UTC+00:00)

Vanguard 3 - Pass Details

Date: 23 January 2020
Orbit: 508 x 3263 km, 33.3° (Epoch: 19 February)

Event Time Altitude Azimuth Distance (km) Brightness Sun altitude
Rises 10:01:00 0° 253° (WSW) 7,177 13.6 -20.0°
Reaches altitude 10° 10:05:47 10° 253° (WSW) 6,200 12.8 -21.0°
Maximum altitude 10:25:46 82° 169° (S) 2,812 9.7 -25.0°
Enters shadow 10:33:16 39° 87° (E) 3,229 9.6 -26.6°
